When you browse on this site, cookies collect data to enhance your experience and personalize the content and advertising you see.
Visit our Privacy Policy to learn more. By continuing to use the site, you agree to this use of cookies and data.
  • In Latvia
  • List of Countries
  • For 7 days
  • Water Temperature
  • Satellite Maps
  • Weather Map
  • Weather Widgets
  • user-avatar
    Login

    Hourly Weather Bregenz

    Today, 19 June, Wednesday

    Time Temperature Precipitation Wind Pressure Humidity
    00:00 +13°C° 0 mm 2 mps 647 mmHg 82%
    01:00 +12°C° 0 mm 2 mps 647 mmHg 82%
    02:00 +12°C° 0 mm 2 mps 646 mmHg 81%
    03:00 +12°C° 0 mm 2 mps 646 mmHg 80%
    04:00 +12°C° 0 mm 2 mps 646 mmHg 80%
    05:00 +13°C° 0 mm 2 mps 646 mmHg 77%
    06:00 +14°C° 0 mm 2 mps 646 mmHg 74%
    07:00 +15°C° 0 mm 1 mps 646 mmHg 70%
    08:00 +18°C° 0 mm 1 mps 647 mmHg 62%
    09:00 +21°C° 0 mm 1 mps 648 mmHg 54%
    10:00 +23°C° 0 mm 1 mps 648 mmHg 45%
    11:00 +24°C° 0 mm 1 mps 648 mmHg 43%
    12:00 +24°C° 0 mm 1 mps 648 mmHg 40%
    13:00 +25°C° 0 mm 1 mps 648 mmHg 37%
    14:00 +25°C° 0 mm 1 mps 648 mmHg 39%
    15:00 +24°C° 0 mm 1 mps 648 mmHg 41%
    16:00 +24°C° 0 mm 1 mps 647 mmHg 43%
    17:00 +22°C° 0 mm 1 mps 647 mmHg 50%
    18:00 +21°C° 0 mm 1 mps 647 mmHg 58%
    19:00 +18°C° 0 mm 0 mps 646 mmHg 65%
    20:00 +18°C° 0.2 mm 1 mps 646 mmHg 69%
    21:00 +15°C° 0.2 mm 2 mps 646 mmHg 74%
    22:00 +14°C° 0.2 mm 2 mps 646 mmHg 78%
    23:00 +13°C° 0.5 mm 2 mps 646 mmHg 81%

    Tomorrow, 20 June, Thursday

    Time Temperature Precipitation Wind Pressure Humidity
    00:00 +12°C° 0.5 mm 1 mps 645 mmHg 85%
    01:00 +11°C° 0.5 mm 1 mps 645 mmHg 88%
    02:00 +11°C° 0.1 mm 1 mps 645 mmHg 89%
    03:00 +11°C° 0.1 mm 1 mps 645 mmHg 89%
    04:00 +11°C° 0.1 mm 1 mps 645 mmHg 89%
    05:00 +12°C° 0.4 mm 1 mps 645 mmHg 89%
    06:00 +13°C° 0.4 mm 1 mps 646 mmHg 88%
    07:00 +13°C° 0.4 mm 0 mps 646 mmHg 88%
    08:00 +14°C° 0.6 mm 1 mps 646 mmHg 88%
    09:00 +14°C° 0.6 mm 1 mps 646 mmHg 88%
    10:00 +15°C° 0.6 mm 1 mps 647 mmHg 88%
    11:00 +15°C° 0.8 mm 1 mps 647 mmHg 85%
    12:00 +16°C° 0.8 mm 1 mps 647 mmHg 83%
    13:00 +16°C° 0.8 mm 1 mps 647 mmHg 81%
    14:00 +16°C° 1 mm 1 mps 647 mmHg 83%
    15:00 +15°C° 1 mm 1 mps 647 mmHg 86%
    16:00 +15°C° 1 mm 1 mps 647 mmHg 88%
    17:00 +15°C° 0.3 mm 1 mps 647 mmHg 89%
    18:00 +14°C° 0.3 mm 0 mps 647 mmHg 89%
    19:00 +13°C° 0.3 mm 0 mps 647 mmHg 90%
    20:00 +12°C° 0 mm 0 mps 647 mmHg 90%
    21:00 +11°C° 0 mm 0 mps 647 mmHg 90%
    22:00 +11°C° 0 mm 1 mps 647 mmHg 90%
    23:00 +11°C° 0 mm 1 mps 647 mmHg 90%

    Day after tomorrow, 21 June, Friday

    Time Temperature Precipitation Wind Pressure Humidity
    00:00 +11°C° 0 mm 1 mps 646 mmHg 90%
    01:00 +10°C° 0 mm 1 mps 646 mmHg 90%
    02:00 +10°C° 0 mm 1 mps 646 mmHg 89%
    03:00 +10°C° 0 mm 1 mps 646 mmHg 89%
    04:00 +9°C° 0 mm 0 mps 646 mmHg 89%
    05:00 +10°C° 0.1 mm 0 mps 647 mmHg 88%
    06:00 +11°C° 0.1 mm 0 mps 647 mmHg 87%
    07:00 +12°C° 0.1 mm 0 mps 648 mmHg 86%
    08:00 +13°C° 0.3 mm 0 mps 648 mmHg 82%
    09:00 +15°C° 0.3 mm 1 mps 648 mmHg 78%
    10:00 +18°C° 0.3 mm 1 mps 649 mmHg 74%
    11:00 +18°C° 0.6 mm 1 mps 649 mmHg 73%
    12:00 +19°C° 0.6 mm 1 mps 649 mmHg 71%
    13:00 +18°C° 0.6 mm 2 mps 649 mmHg 70%
    14:00 +18°C° 0.6 mm 2 mps 648 mmHg 72%
    15:00 +18°C° 0.6 mm 2 mps 648 mmHg 74%
    16:00 +17°C° 0.6 mm 2 mps 648 mmHg 77%
    17:00 +16°C° 1.5 mm 1 mps 648 mmHg 82%
    18:00 +15°C° 1.5 mm 1 mps 648 mmHg 87%
    19:00 +14°C° 1.5 mm 1 mps 647 mmHg 93%
    20:00 +13°C° 1.6 mm 1 mps 647 mmHg 94%
    21:00 +11°C° 1.6 mm 0 mps 647 mmHg 95%
    22:00 +11°C° 1.6 mm 0 mps 647 mmHg 96%
    23:00 +11°C° 0.5 mm 0 mps 647 mmHg 96%

    22 June, Saturday

    Time Temperature Precipitation Wind Pressure Humidity
    00:00 +10°C° 0.5 mm 0 mps 647 mmHg 96%
    01:00 +10°C° 0.5 mm 0 mps 646 mmHg 95%
    02:00 +10°C° 0.7 mm 0 mps 647 mmHg 97%
    03:00 +10°C° 0.7 mm 0 mps 646 mmHg 97%
    04:00 +10°C° 0.7 mm 0 mps 646 mmHg 98%
    05:00 +10°C° 0.4 mm 0 mps 646 mmHg 97%
    06:00 +10°C° 0.4 mm 0 mps 647 mmHg 97%
    07:00 +11°C° 0.4 mm 0 mps 647 mmHg 96%
    08:00 +12°C° 0.4 mm 1 mps 647 mmHg 95%
    09:00 +12°C° 0.4 mm 1 mps 647 mmHg 95%
    10:00 +13°C° 0.4 mm 1 mps 647 mmHg 94%
    11:00 +14°C° 1 mm 1 mps 647 mmHg 91%
    12:00 +15°C° 1 mm 2 mps 648 mmHg 87%
    13:00 +16°C° 1 mm 2 mps 648 mmHg 84%
    14:00 +15°C° 1.4 mm 2 mps 648 mmHg 85%
    15:00 +15°C° 1.4 mm 2 mps 648 mmHg 86%
    16:00 +15°C° 1.4 mm 2 mps 647 mmHg 87%
    17:00 +15°C° 0.7 mm 2 mps 648 mmHg 88%
    18:00 +14°C° 0.7 mm 1 mps 648 mmHg 90%
    19:00 +14°C° 0.7 mm 1 mps 648 mmHg 91%
    20:00 +12°C° 0 mm 1 mps 648 mmHg 92%
    21:00 +11°C° 0 mm 1 mps 648 mmHg 92%
    22:00 +10°C° 0 mm 1 mps 648 mmHg 93%
    23:00 +10°C° 0 mm 1 mps 647 mmHg 93%

    23 June, Sunday

    Time Temperature Precipitation Wind Pressure Humidity
    00:00 +9°C° 0 mm 1 mps 647 mmHg 94%
    01:00 +8°C° 0 mm 1 mps 647 mmHg 94%
    02:00 +8°C° 0 mm 1 mps 647 mmHg 94%
    03:00 +8°C° 0 mm 1 mps 647 mmHg 94%
    04:00 +7°C° 0 mm 1 mps 647 mmHg 94%
    05:00 +9°C° 0 mm 1 mps 647 mmHg 93%
    06:00 +9°C° 0 mm 0 mps 648 mmHg 91%
    07:00 +10°C° 0 mm 0 mps 648 mmHg 90%
    08:00 +12°C° 0 mm 0 mps 649 mmHg 81%
    09:00 +15°C° 0 mm 1 mps 649 mmHg 73%
    10:00 +18°C° 0 mm 1 mps 650 mmHg 64%
    11:00 +19°C° 0 mm 1 mps 650 mmHg 60%
    12:00 +20°C° 0 mm 1 mps 650 mmHg 57%
    13:00 +20°C° 0 mm 2 mps 651 mmHg 53%
    14:00 +20°C° 0 mm 2 mps 651 mmHg 53%
    15:00 +20°C° 0 mm 2 mps 651 mmHg 53%
    16:00 +20°C° 0 mm 2 mps 651 mmHg 54%
    17:00 +19°C° 0 mm 2 mps 650 mmHg 61%
    18:00 +19°C° 0 mm 1 mps 650 mmHg 69%
    19:00 +16°C° 0 mm 1 mps 650 mmHg 77%
    20:00 +15°C° 0 mm 1 mps 650 mmHg 81%
    21:00 +13°C° 0 mm 1 mps 650 mmHg 84%
    22:00 +11°C° 0 mm 1 mps 650 mmHg 88%
    23:00 +11°C° 0 mm 1 mps 650 mmHg 87%

    24 June, Monday

    Time Temperature Precipitation Wind Pressure Humidity
    00:00 +11°C° 0 mm 1 mps 650 mmHg 86%
    01:00 +11°C° 0 mm 1 mps 650 mmHg 85%
    02:00 +11°C° 0 mm 1 mps 650 mmHg 85%
    03:00 +11°C° 0 mm 1 mps 650 mmHg 85%
    04:00 +11°C° 0 mm 1 mps 650 mmHg 85%
    05:00 +13°C° 0 mm 1 mps 650 mmHg 81%
    06:00 +14°C° 0 mm 1 mps 651 mmHg 78%
    07:00 +16°C° 0 mm 1 mps 652 mmHg 74%
    08:00 +19°C° 0 mm 1 mps 652 mmHg 66%
    09:00 +21°C° 0 mm 1 mps 653 mmHg 59%
    10:00 +23°C° 0 mm 1 mps 653 mmHg 51%
    11:00 +24°C° 0 mm 1 mps 654 mmHg 49%
    12:00 +25°C° 0 mm 1 mps 654 mmHg 46%
    13:00 +26°C° 0 mm 1 mps 654 mmHg 44%
    14:00 +27°C° 0 mm 1 mps 654 mmHg 45%
    15:00 +27°C° 0 mm 1 mps 654 mmHg 46%
    16:00 +27°C° 0 mm 1 mps 654 mmHg 47%
    17:00 +25°C° 0 mm 1 mps 654 mmHg 55%
    18:00 +24°C° 0 mm 1 mps 653 mmHg 64%
    19:00 +23°C° 0 mm 1 mps 653 mmHg 73%
    20:00 +21°C° 0 mm 1 mps 653 mmHg 73%
    21:00 +19°C° 0 mm 1 mps 653 mmHg 73%
    22:00 +18°C° 0 mm 1 mps 653 mmHg 73%
    23:00 +16°C° 0 mm 1 mps 653 mmHg 73%
    Show more